Regional Weather Roundup
Issued by NWS Jackson, KY

Home | Current Version | Previous Version | Text Only | Print | Product List | Glossary On
Versions: 1 2 3 4 5 6 7 8 9 10 11 12 13 14 15 16 17 18 19 20 21 22 23 24 25 26 27 28 29 30 31 32 33 34 35 36 37 38 39 40 41 42 43 44 45 46 47 48 49
000
ASUS43 KJKL 032110
RWRJKL

EAST KENTUCKY HOURLY WEATHER ROUNDUP
NATIONAL WEATHER SERVICE JACKSON KY
500 PM EDT THU SEP 03 2015

NOTE: "FAIR" INDICATES FEW OR NO CLOUDS BELOW 12,000 FEET WITH
NO SIGNIFICANT WEATHER AND/OR OBSTRUCTIONS TO VISIBILITY.

* THESE REPORTS ARE NOT UNDER NWS QUALITY CONTROL AND MAY NOT
  REPORT WEATHER SUCH AS PRECIPITATION AND FOG.

KYZ079-080-083-085-087-088-110-112-115-119-120-032200
...EASTERN KENTUCKY...

CITY           SKY/WX    TMP DP  RH WIND       PRES   REMARKS
JACKSON        SUNNY     86  67  52 VRB3      30.00F
LONDON         MOSUNNY   85  64  49 SE3       29.99F
SOMERSET*      PTSUNNY   88  63  42 S3        29.98F
MONTICELLO*    SUNNY     92  67  43 CALM      30.01F HX  95
MIDDLESBORO*   SUNNY     88  66  48 N3        29.98F HX  90
HARLAN APT*      N/A     88  59  37 MISG      30.00F
HAZARD APT*    CLEAR     86  66  51 NW5       29.99F
BLACK MTN*       N/A     77  66  69 NE1         N/A
PIKEVILLE APT* MOSUNNY   84  66  54 N3        29.99F
BIG SANDY*     PTCLDY    88  68  51 NW6       29.98F HX  91
MOREHEAD APT*  CLEAR     88  66  48 NW5       30.00S HX  90
$$

KYZ035-036-041-042-044-050-067-078-099-032200
...CENTRAL KENTUCKY...

CITY           SKY/WX    TMP DP  RH WIND       PRES   REMARKS
MT STERLING*   SUNNY     90  64  43 N3        29.99F HX  91
FLEMING/MASON* SUNNY    N/A N/A N/A W7        29.98F
DANVILLE*      SUNNY     86  64  48 CALM      29.99F
RICHMOND*      SUNNY     90  61  37 NW5       29.98S
LEXINGTON      SUNNY     91  63  39 VRB5      29.98F HX  92
FRANKFORT      SUNNY     90  63  40 W5        29.96F HX  91
$$

KYZ091>093-OHZ055-061-077-WVZ005-015-034-035-042-032200
...SOUTHERN OHIO/WEST VIRGINIA...

CITY           SKY/WX    TMP DP  RH WIND       PRES   REMARKS
COVINGTON      MOSUNNY   89  63  41 W6        29.96F HX  90
COLUMBUS       LGT RAIN  81  70  69 NW10G16   29.94F
DAYTON         MOSUNNY   90  64  42 W14       29.96F HX  91
WILMINGTON     SUNNY     88  66  48 W9        29.96F HX  90
HUNTINGTON     MOSUNNY   89  63  41 N10       29.95F HX  90
CHARLESTON     MOSUNNY   89  65  44 VRB7      29.96F HX  91
PINEVILLE*     MOSUNNY   86  70  59 MISG      30.05S HX  90
BECKLEY        MOSUNNY   81  64  56 NW7       30.04F
BLUEFIELD      MOSUNNY   83  62  49 NW7       30.07F THUNDER
$$

VAZ002-007-008-TNZ017-027-036-066-071-032200
...SOUTHWEST VIRGINIA/EAST TENNESSEE...

CITY           SKY/WX    TMP DP  RH WIND       PRES   REMARKS
WISE*          MOSUNNY   82  57  42 NE7       30.08F
JONESVILLE*    CLEAR     90  64  43 CALM      30.01F HX  91
ABINGDON*      SUNNY     85  60  42 N3        30.02F
BRISTOL        MOSUNNY   85  64  49 CALM      29.99F THUNDER
KNOXVILLE      MOSUNNY   91  61  36 NE9       29.95F HX  91
OAK RIDGE      SUNNY     90  63  40 CALM      29.97F HX  91
CROSSVILLE     MOSUNNY   88  63  43 VRB5      30.03F
NASHVILLE      MOSUNNY   93  61  34 E7        29.94F HX  93
$$

...KEY TO REMARKS...
VSB - VISIBILITY IN MILES
WCI - WIND CHILL INDEX
HX  - HEAT INDEX

$$


USA.gov is the U.S. government's official web portal to all federal, state and local government web resources and services.